Home   Weather   Upernavik   Past weeks
Flag for Greenland

Past Weather in Upernavik, Greenland — Yesterday and Last 2 Weeks

Now
30 °F

Chilly.


Feels Like: 18 °F
Forecast: 29 / 22 °F
Wind: 16 mph from Southeast

Location: Nuussuaq

Current Time: Oct 14, 2019 at 12:02:06 pm

Latest Report: Oct 14, 2019 at 11:00 am


Visibility: N/A

Pressure: 29.99 "Hg

Humidity: 67%

Dew Point: 20 °F

Location of UpernavikLocation

Past Weather in Upernavik — Graph

°F

Upernavik Temperature Yesterday

Maximum temperature yesterday: 35 °F (at 1:00 pm)
Minimum temperature yesterday: 25 °F (at 10:00 pm)
Average temperature yesterday: 30 °F

High & Low Weather Summary for the Past Weeks

 TemperatureHumidityPressure
High50 °F (Oct 2, 7:00 pm)100% (Oct 5, 3:00 am)30.14 "Hg (Oct 5, 3:00 am)
Low25 °F (Oct 14, 12:00 am)33% (Oct 2, 7:00 pm)29.18 "Hg (Oct 5, 3:00 pm)
Average36 °F66%29.73 "Hg
* Reported Sep 29 10:00 am — Oct 14 10:00 am, Upernavik. Weather by CustomWeather, © 2019

Note: Actual official high and low records may vary slightly from our data, if they occured in-between our weather recording intervals... More about our weather records

Advertising

Upernavik Weather History for the Previous 24 Hours

Scroll right to see more
 ConditionsComfort  
Time TempWeatherWind HumidityBarometerVisibility
10:00 am
Mon, Oct 14
30 °FChilly.16 mph71%29.98 "HgN/A
9:00 am29 °FChilly.15 mph72%29.97 "HgN/A
8:00 am29 °FChilly.10 mph72%29.96 "HgN/A
7:00 am29 °FChilly.7 mph72%29.95 "HgN/A
6:00 am27 °FChilly.8 mph67%29.93 "HgN/A
5:00 am27 °FChilly.6 mph62%29.91 "HgN/A
4:00 am26 °FChilly.6 mph52%29.89 "HgN/A
3:00 am27 °FChilly.7 mph49%29.88 "HgN/A
2:00 am28 °FChilly.7 mph48%29.86 "HgN/A
1:00 am26 °FChilly.9 mph52%29.85 "HgN/A
12:00 am25 °FCold.10 mph55%29.84 "HgN/A
11:00 pm
Sun, Oct 13
27 °FChilly.10 mph52%29.83 "HgN/A
10:00 pm25 °FChilly.10 mph54%29.80 "HgN/A
9:00 pm27 °FChilly.10 mph54%29.80 "HgN/A
8:00 pm27 °FChilly.9 mph46%29.79 "HgN/A
7:00 pm26 °FChilly.7 mph48%29.78 "HgN/A
6:00 pm28 °FChilly.6 mph48%29.77 "HgN/A
5:00 pm28 °FChilly.8 mph49%29.75 "HgN/A
4:00 pm29 °FChilly.7 mph45%29.75 "HgN/A
3:00 pm32 °FChilly.1 mph62%29.74 "HgN/A
2:00 pm32 °FChilly.2 mph64%29.74 "HgN/A
1:00 pm35 °FChilly.1 mph61%29.75 "HgN/A
12:00 pm32 °FChilly.5 mph64%29.75 "HgN/A
Weather by CustomWeather, © 2019

See weather overview